{"data":{"norad_id":60604,"epoch":"2026-05-25T04:18:58.589856Z","epoch_age_seconds":55929,"freshness":"FRESH","line1":"1 60604U 24150X   26145.17984479 -.00002468  00000+0 -71275-4 0  9992","line2":"2 60604  53.1619 314.4828 0001241  99.6204 260.4936 15.30179897 99717","mean_motion":15.30179897,"eccentricity":0.0001241,"inclination_deg":53.1619,"raan_deg":314.4828,"arg_perigee_deg":99.6204,"mean_anomaly_deg":260.4936,"bstar":-7.1275e-5,"rev_number":9971,"period_min":94.106582031511,"perigee_km":474.42458557001,"apogee_km":476.12560245175,"semimajor_km":6853.4120940109,"source":"CELESTRAK","updated_at":"2026-05-25T13:38:19.283017Z"}}